This demonstration page uses our WeatherBlox Daily Observations layout. Learn more.

Left ArrowRight Arrow

Hourly Observations for September 29, 2017

Temp ( °F °C ) Dew Point ( °F °C ) Humidity (%) Winds ( mph kmh ) Pressure ( in mb ) Visibility ( mi km ) Precip ( " mm )
12:15 am 00:15 Clear 63 17 52 11 68 68 NNW 10 17 30.06 1018 10 16 0.00 0.00
12:35 am 00:35 Clear 63 17 52 11 68 68 N 7 11 30.06 1018 10 16 0.00 0.00
12:55 am 00:55 Clear 63 17 50 10 64 64 N 10 17 30.06 1018 10 16 0.00 0.00
1:15 am 01:15 Clear 63 17 52 11 68 68 N 9 15 30.06 1018 10 16 0.00 0.00
1:35 am 01:35 Clear 63 17 50 10 64 64 N 8 13 30.06 1018 10 16 0.00 0.00
1:55 am 01:55 Clear 61 16 50 10 68 68 N 6 9 30.09 1019 10 16 0.00 0.00
2:15 am 02:15 Clear 59 15 50 10 72 72 Calm 30.09 1019 10 16 0.00 0.00
2:35 am 02:35 Clear 59 15 50 10 72 72 N 7 11 30.09 1019 10 16 0.00 0.00
2:55 am 02:55 Clear 59 15 48 9 68 68 NNW 9 15 30.09 1019 10 16 0.00 0.00
3:15 am 03:15 Clear 57 14 48 9 72 72 NW 7 11 30.06 1018 10 16 0.00 0.00
3:35 am 03:35 Clear 55 13 48 9 77 77 NNW 3 6 30.06 1018 10 16 0.00 0.00
3:55 am 03:55 Clear 57 14 48 9 72 72 N 5 7 30.06 1018 10 16 0.00 0.00
4:15 am 04:15 Clear 57 14 48 9 72 72 N 6 9 30.09 1019 10 16 0.00 0.00
4:35 am 04:35 Clear 54 12 48 9 82 82 NNW 6 9 30.09 1019 10 16 0.00 0.00
4:55 am 04:55 Clear 54 12 48 9 82 82 NW 7 11 30.09 1019 10 16 0.00 0.00
5:15 am 05:15 Clear 54 12 48 9 82 82 NW 3 6 30.09 1019 10 16 0.00 0.00
5:35 am 05:35 Clear 54 12 48 9 82 82 Calm 30.09 1019 10 16 0.00 0.00
5:55 am 05:55 Clear 54 12 48 9 82 82 Calm 30.12 1020 10 16 0.00 0.00
6:15 am 06:15 Clear 54 12 48 9 82 82 NNW 3 6 30.12 1020 10 16 0.00 0.00
6:35 am 06:35 Clear 52 11 48 9 88 88 Calm 30.12 1020 10 16 0.00 0.00
6:55 am 06:55 Clear 52 11 48 9 88 88 Calm 30.12 1020 10 16 0.00 0.00
7:15 am 07:15 Sunny 52 11 46 8 82 82 Calm 30.12 1020 10 16 0.00 0.00
7:35 am 07:35 Sunny 52 11 48 9 88 88 Calm 30.12 1020 10 16 0.00 0.00
7:55 am 07:55 Sunny 52 11 48 9 88 88 Calm 30.12 1020 10 16 0.00 0.00
8:15 am 08:15 Sunny 55 13 50 10 82 82 Calm 30.15 1021 10 16 0.00 0.00
8:35 am 08:35 Sunny with Nearby Thunderstorms 59 15 50 10 72 72 N 5 7 30.15 1021 10 16 0.00 0.00
8:55 am 08:55 Sunny with Nearby Thunderstorms 61 16 50 10 68 68 N 5 7 30.15 1021 10 16 0.00 0.00
9:15 am 09:15 Sunny 61 16 50 10 68 68 NNW 7 11 30.15 1021 10 16 0.00 0.00
9:35 am 09:35 Sunny 63 17 48 9 59 59 N 6 9 30.15 1021 10 16 0.00 0.00
9:55 am 09:55 Sunny 64 18 48 9 56 56 NNW 5 7 30.15 1021 10 16 0.00 0.00
10:15 am 10:15 Sunny 64 18 46 8 52 52 N 5 7 30.15 1021 10 16 0.00 0.00
10:35 am 10:35 Sunny 64 18 46 8 52 52 NW 7 11 30.15 1021 10 16 0.00 0.00
10:55 am 10:55 Sunny 66 19 46 8 49 49 NW 7 11 30.15 1021 10 16 0.00 0.00
11:15 am 11:15 Sunny 66 19 46 8 49 49 NNW 3 6 30.15 1021 10 16 0.00 0.00
11:35 am 11:35 Sunny 68 20 48 9 49 49 NE 5 7 30.12 1020 10 16 0.00 0.00
11:55 am 11:55 Sunny 68 20 48 9 49 49 NNW 6 9 30.12 1020 10 16 0.00 0.00
12:15 pm 12:15 Sunny 68 20 46 8 46 46 N 5 7 30.12 1020 10 16 0.00 0.00
12:35 pm 12:35 Sunny 68 20 48 9 49 49 Calm 30.12 1020 10 16 0.00 0.00
12:55 pm 12:55 Sunny 68 20 48 9 49 49 WNW 8 13 30.12 1020 10 16 0.00 0.00
1:15 pm 13:15 Sunny 70 21 48 9 46 46 Calm 30.09 1019 10 16 0.00 0.00
1:35 pm 13:35 Sunny 70 21 50 10 50 50 W 8 13 30.09 1019 10 16 0.00 0.00
1:55 pm 13:55 Sunny 70 21 50 10 50 50 WNW 3 6 30.09 1019 10 16 0.00 0.00
2:15 pm 14:15 Sunny 70 21 50 10 50 50 Calm 30.09 1019 10 16 0.00 0.00
2:35 pm 14:35 Sunny 70 21 50 10 50 50 WSW 6 9 30.09 1019 10 16 0.00 0.00
2:55 pm 14:55 Sunny 72 22 50 10 47 47 SSW 7 11 30.06 1018 10 16 0.00 0.00
3:15 pm 15:15 Sunny 72 22 50 10 47 47 W 8 13 30.06 1018 10 16 0.00 0.00
3:35 pm 15:35 Sunny 72 22 50 10 47 47 W 7 11 30.06 1018 10 16 0.00 0.00
3:55 pm 15:55 Sunny 73 23 52 11 47 47 Calm 30.06 1018 10 16 0.00 0.00
4:15 pm 16:15 Sunny 73 23 50 10 44 44 SSW 5 7 30.06 1018 10 16 0.00 0.00
4:35 pm 16:35 Sunny 73 23 50 10 44 44 SSW 5 7 30.06 1018 10 16 0.00 0.00
4:55 pm 16:55 Sunny 73 23 52 11 47 47 WSW 6 9 30.06 1018 10 16 0.00 0.00
5:15 pm 17:15 Sunny 72 22 50 10 47 47 SSW 5 7 30.03 1017 10 16 0.00 0.00
5:35 pm 17:35 Sunny 72 22 50 10 47 47 S 3 6 30.03 1017 10 16 0.00 0.00
5:55 pm 17:55 Sunny 72 22 50 10 47 47 S 3 6 30.03 1017 10 16 0.00 0.00
6:15 pm 18:15 Sunny 72 22 52 11 50 50 SSW 5 7 30.06 1018 10 16 0.00 0.00
6:35 pm 18:35 Sunny 70 21 52 11 53 53 SSE 3 6 30.06 1018 10 16 0.00 0.00
6:55 pm 18:55 Sunny 70 21 50 10 50 50 SSE 3 6 30.06 1018 10 16 0.00 0.00
7:15 pm 19:15 Clear 68 20 52 11 56 56 Calm 30.06 1018 10 16 0.00 0.00
7:35 pm 19:35 Partly Cloudy 63 17 52 11 68 68 Calm 30.06 1018 10 16 0.00 0.00
7:55 pm 19:55 Mostly Cloudy 63 17 54 12 73 73 Calm 30.06 1018 10 16 0.00 0.00
8:15 pm 20:15 Cloudy 63 17 54 12 73 73 Calm 30.06 1018 10 16 0.00 0.00
8:35 pm 20:35 Mostly Cloudy 63 17 54 12 73 73 SW 3 6 30.06 1018 10 16 0.00 0.00
8:55 pm 20:55 Partly Cloudy 61 16 54 12 77 77 W 5 7 30.09 1019 10 16 0.00 0.00
9:15 pm 21:15 Clear 61 16 54 12 77 77 W 3 6 30.09 1019 10 16 0.00 0.00
9:35 pm 21:35 Clear 59 15 54 12 82 82 WSW 3 6 30.09 1019 10 16 0.00 0.00
9:55 pm 21:55 Partly Cloudy 59 15 54 12 82 82 WSW 3 6 30.09 1019 10 16 0.00 0.00
10:15 pm 22:15 Mostly Cloudy 63 17 54 12 73 73 SW 5 7 30.09 1019 10 16 0.00 0.00
10:35 pm 22:35 Mostly Cloudy 63 17 54 12 73 73 SW 5 7 30.09 1019 10 16 0.00 0.00
10:55 pm 22:55 Cloudy 63 17 54 12 73 73 SW 8 13 30.09 1019 10 16 0.00 0.00
11:15 pm 23:15 Cloudy 63 17 54 12 73 73 WSW 5 7 30.09 1019 10 16 0.00 0.00
11:35 pm 23:35 Cloudy 64 18 54 12 68 68 NNW 9 15 30.12 1020 10 16 0.00 0.00
11:55 pm 23:55 Cloudy 64 18 54 12 68 68 N 5 7 30.12 1020 10 16 0.00 0.00

Powered by AerisWeather